| time (UTC) | temp C | wind direction | speed KPH | gust KPH | rain 1hr cm | rain 24hr cm | rain mn cm | humidity % | barometer mb |
| 20260507202851 | 13 | 248 | 4.8 | 22.5 | 0.00 | 2.84 | 2.84 | 77 | 1001.2 |
| 20260507202557 | 13 | 248 | 6.4 | 27.4 | 0.00 | 2.84 | 2.84 | 76 | 1001.1 |
| 20260507201831 | 13 | 203 | 8.0 | 27.4 | 0.00 | 2.84 | 2.84 | 76 | 1001.1 |
| 20260507201321 | 13 | 225 | 11.3 | 22.5 | 0.00 | 2.84 | 2.84 | 75 | 1001.2 |
| 20260507200811 | 13 | 248 | 6.4 | 22.5 | 0.00 | 2.84 | 2.84 | 75 | 1000.9 |
| 20260507200300 | 13 | 315 | 6.4 | 20.9 | 0.00 | 2.84 | 2.84 | 75 | 1000.2 |
| 20260507195752 | 13 | 270 | 8.0 | 17.7 | 0.00 | 2.84 | 2.84 | 76 | 999.9 |
| 20260507195500 | 13 | 270 | 4.8 | 20.9 | 0.00 | 2.84 | 2.84 | 76 | 999.6 |
| 20260507194730 | 13 | 248 | 6.4 | 20.9 | 0.00 | 2.84 | 2.84 | 77 | 999.7 |
| 20260507194221 | 13 | 248 | 6.4 | 17.7 | 0.00 | 2.84 | 2.84 | 77 | 999.8 |
| 20260507193710 | 13 | 270 | 6.4 | 24.1 | 0.00 | 2.84 | 2.84 | 77 | 999.6 |
| 20260507193200 | 13 | 225 | 4.8 | 24.1 | 0.00 | 2.84 | 2.84 | 77 | 1000.0 |
| 20260507192649 | 13 | 270 | 4.8 | 20.9 | 0.00 | 2.84 | 2.84 | 77 | 999.6 |
| 20260507192140 | 13 | 293 | 8.0 | 20.9 | 0.00 | 2.84 | 2.84 | 77 | 999.8 |
| 20260507191849 | 14 | 270 | 6.4 | 20.9 | 0.00 | 2.84 | 2.84 | 77 | 999.9 |
| 20260507191119 | 14 | 248 | 3.2 | 14.5 | 0.00 | 2.84 | 2.84 | 77 | 1000.4 |
| 20260507190609 | 14 | 293 | 3.2 | 14.5 | 0.00 | 2.84 | 2.84 | 77 | 1000.7 |
| 20260507190059 | 14 | 293 | 3.2 | 22.5 | 0.00 | 2.84 | 2.84 | 78 | 1001.0 |
| 20260507185549 | 14 | 315 | 3.2 | 24.1 | 0.00 | 2.84 | 2.84 | 78 | 1001.5 |
| 20260507185039 | 14 | 293 | 6.4 | 24.1 | 0.00 | 2.84 | 2.84 | 77 | 1001.0 |
| 20260507184529 | 14 | 293 | 3.2 | 22.5 | 0.00 | 2.84 | 2.84 | 77 | 1001.7 |
| 20260507184019 | 14 | 293 | 3.2 | 20.9 | 0.00 | 2.84 | 2.84 | 77 | 1001.5 |
| 20260507183730 | 14 | 248 | 6.4 | 17.7 | 0.00 | 2.84 | 2.84 | 77 | 1001.8 |
| 20260507183004 | 14 | 225 | 9.7 | 25.7 | 0.00 | 2.84 | 2.84 | 77 | 1001.5 |
| 20260507182448 | 14 | 225 | 6.4 | 32.2 | 0.00 | 2.84 | 2.84 | 77 | 1001.8 |
| 20260507181939 | 14 | 270 | 11.3 | 32.2 | 0.00 | 2.84 | 2.84 | 78 | 1002.2 |
| 20260507181428 | 14 | 315 | 9.7 | 17.7 | 0.00 | 2.84 | 2.84 | 78 | 1002.6 |
| 20260507180918 | 14 | 90 | 6.4 | 17.7 | 0.00 | 2.84 | 2.84 | 78 | 1002.9 |
| 20260507180408 | 14 | 248 | 4.8 | 24.1 | 0.00 | 2.84 | 2.84 | 79 | 1003.2 |
| 20260507175858 | 14 | 248 | 6.4 | 24.1 | 0.00 | 2.84 | 2.84 | 80 | 1003.2 |
| 20260507175347 | 14 | 270 | 6.4 | 17.7 | 0.00 | 2.84 | 2.84 | 79 | 1003.0 |
| 20260507174839 | 13 | 225 | 6.4 | 14.5 | 0.00 | 2.84 | 2.84 | 80 | 1002.7 |
| 20260507174327 | 13 | 315 | 3.2 | 12.9 | 0.00 | 2.84 | 2.84 | 81 | 1002.2 |
| 20260507173817 | 13 | 270 | 3.2 | 12.9 | 0.00 | 2.84 | 2.84 | 81 | 1002.1 |
| 20260507173525 | 13 | 248 | 3.2 | 12.9 | 0.00 | 2.84 | 2.84 | 81 | 1001.8 |
| 20260507172757 | 13 | 45 | 3.2 | 12.9 | 0.00 | 2.84 | 2.84 | 81 | 1001.2 |
| 20260507172510 | 13 | 270 | 4.8 | 11.3 | 0.00 | 2.84 | 2.84 | 81 | 1001.0 |
| 20260507171736 | 13 | 158 | 3.2 | 11.3 | 0.00 | 2.84 | 2.84 | 81 | 1000.9 |
| 20260507171226 | 13 | 248 | 4.8 | 17.7 | 0.00 | 2.84 | 2.84 | 80 | 1001.2 |
| 20260507170716 | 13 | 293 | 3.2 | 17.7 | 0.00 | 2.84 | 2.84 | 80 | 1001.8 |
| 20260507170206 | 13 | 248 | 4.8 | 17.7 | 0.00 | 2.84 | 2.84 | 80 | 1001.8 |
| 20260507165656 | 13 | 225 | 6.4 | 17.7 | 0.00 | 2.84 | 2.84 | 80 | 1002.0 |
| 20260507165147 | 13 | 225 | 6.4 | 17.7 | 0.00 | 2.84 | 2.84 | 81 | 1002.5 |
| 20260507164637 | 13 | 225 | 6.4 | 17.7 | 0.00 | 2.84 | 2.84 | 81 | 1002.7 |
| 20260507164347 | 13 | 293 | 3.2 | 20.9 | 0.00 | 2.84 | 2.84 | 81 | 1003.0 |
| 20260507163616 | 14 | 293 | 6.4 | 22.5 | 0.00 | 2.84 | 2.84 | 81 | 1003.1 |
| 20260507163106 | 14 | 203 | 8.0 | 22.5 | 0.00 | 2.84 | 2.84 | 81 | 1002.9 |
| 20260507162556 | 14 | 270 | 8.0 | 27.4 | 0.00 | 2.84 | 2.84 | 81 | 1003.3 |
| 20260507162046 | 14 | 293 | 8.0 | 27.4 | 0.00 | 2.84 | 2.84 | 81 | 1002.5 |
| 20260507161755 | 14 | 248 | 6.4 | 24.1 | 0.00 | 2.84 | 2.84 | 82 | 1001.8 |
| 20260507161025 | 14 | 248 | 6.4 | 24.1 | 0.00 | 2.84 | 2.84 | 83 | 1001.5 |
| 20260507160515 | 14 | 270 | 6.4 | 14.5 | 0.00 | 2.84 | 2.84 | 84 | 1001.2 |
| 20260507160005 | 15 | 338 | 4.8 | 14.5 | 0.00 | 2.84 | 2.84 | 86 | 1001.1 |
| 20260507155455 | 15 | 225 | 6.4 | 14.5 | 0.00 | 2.84 | 2.84 | 85 | 1001.2 |
| 20260507155206 | 15 | 248 | 6.4 | 14.5 | 0.00 | 2.84 | 2.84 | 85 | 1001.5 |
| 20260507154442 | 15 | 293 | 3.2 | 14.5 | 0.00 | 2.84 | 2.84 | 85 | 1001.3 |
| 20260507153924 | 15 | 203 | 8.0 | 14.5 | 0.00 | 2.84 | 2.84 | 85 | 1001.9 |
| 20260507153633 | 15 | 315 | 4.8 | 14.5 | 0.00 | 2.84 | 2.84 | 85 | 1002.0 |
| 20260507152904 | 15 | 270 | 3.2 | 14.5 | 0.00 | 2.84 | 2.84 | 84 | 1002.0 |
| 20260507152354 | 15 | 203 | 6.4 | 14.5 | 0.00 | 2.84 | 2.84 | 84 | 1001.4 |
| 20260507151844 | 15 | 203 | 9.7 | 17.7 | 0.00 | 2.84 | 2.84 | 85 | 1001.4 |
| 20260507151334 | 14 | 135 | 3.2 | 17.7 | 0.00 | 2.84 | 2.84 | 85 | 1001.7 |
| 20260507150824 | 14 | 225 | 6.4 | 17.7 | 0.00 | 2.84 | 2.84 | 86 | 1002.0 |
| 20260507150314 | 15 | 270 | 4.8 | 17.7 | 0.00 | 2.84 | 2.84 | 87 | 1001.8 |
| 20260507145804 | 15 | 270 | 8.0 | 17.7 | 0.00 | 2.84 | 2.84 | 87 | 1001.9 |
| 20260507145511 | 15 | 203 | 8.0 | 20.9 | 0.00 | 2.84 | 2.84 | 89 | 1002.5 |
| 20260507144743 | 15 | 248 | 6.4 | 20.9 | 0.00 | 2.84 | 2.84 | 89 | 1002.5 |
| 20260507144234 | 15 | 270 | 3.2 | 17.7 | 0.00 | 2.84 | 2.84 | 88 | 1002.4 |
| 20260507143724 | 15 | 293 | 4.8 | 9.7 | 0.00 | 2.84 | 2.84 | 89 | 1002.1 |
| 20260507143213 | 15 | 158 | 0.0 | 12.9 | 0.00 | 2.84 | 2.84 | 89 | 1001.3 |
| 20260507142703 | 15 | 225 | 0.0 | 12.9 | 0.00 | 2.84 | 2.84 | 88 | 1001.3 |
| 20260507142423 | 15 | 248 | 6.4 | 12.9 | 0.00 | 2.84 | 2.84 | 88 | 1001.8 |
| 20260507141643 | 15 | 248 | 4.8 | 9.7 | 0.00 | 2.84 | 2.84 | 88 | 1001.4 |
| 20260507141351 | 15 | 248 | 0.0 | 11.3 | 0.00 | 2.84 | 2.84 | 88 | 1001.0 |
| 20260507140625 | 15 | 248 | 1.6 | 12.9 | 0.00 | 2.84 | 2.84 | 88 | 1001.3 |
| 20260507140337 | 15 | 113 | 3.2 | 12.9 | 0.00 | 2.84 | 2.84 | 88 | 1001.6 |
| 20260507135603 | 15 | 293 | 3.2 | 12.9 | 0.00 | 2.84 | 2.84 | 88 | 1001.6 |
| 20260507135314 | 15 | 270 | 4.8 | 14.5 | 0.00 | 2.84 | 2.84 | 88 | 1001.8 |
| 20260507134542 | 15 | 293 | 3.2 | 14.5 | 0.00 | 2.92 | 2.84 | 88 | 1001.0 |
| 20260507134032 | 15 | 135 | 3.2 | 9.7 | 0.00 | 3.02 | 2.84 | 89 | 1001.2 |
| 20260507133523 | 15 | 315 | 3.2 | 12.9 | 0.00 | 3.02 | 2.84 | 89 | 1001.9 |
| 20260507133012 | 15 | 270 | 6.4 | 12.9 | 0.00 | 3.02 | 2.84 | 89 | 1002.2 |
| 20260507132722 | 15 | 270 | 0.0 | 3.2 | 0.00 | 3.02 | 2.84 | 90 | 1002.5 |
| 20260507131951 | 15 | 293 | 1.6 | 6.4 | 0.00 | 3.02 | 2.84 | 90 | 1002.7 |
| 20260507131441 | 15 | 248 | 1.6 | 6.4 | 0.00 | 3.02 | 2.84 | 90 | 1002.6 |
| 20260507130932 | 15 | 203 | 0.0 | 6.4 | 0.00 | 3.02 | 2.84 | 90 | 1003.3 |
| 20260507130421 | 15 | 23 | 1.6 | 6.4 | 0.00 | 3.02 | 2.84 | 90 | 1003.8 |
| 20260507125916 | 15 | 113 | 1.6 | 11.3 | 0.00 | 3.02 | 2.84 | 90 | 1003.9 |
| 20260507125401 | 15 | 225 | 0.0 | 11.3 | 0.00 | 3.02 | 2.84 | 90 | 1003.6 |
| 20260507124851 | 15 | 248 | 4.8 | 12.9 | 0.00 | 3.02 | 2.84 | 90 | 1002.6 |
| 20260507124341 | 15 | 90 | 4.8 | 12.9 | 0.00 | 3.02 | 2.84 | 90 | 1001.8 |
| 20260507123831 | 15 | 113 | 1.6 | 14.5 | 0.00 | 3.02 | 2.84 | 90 | 1001.5 |
| 20260507123321 | 15 | 270 | 8.0 | 14.5 | 0.00 | 3.02 | 2.84 | 91 | 1001.5 |
| 20260507122811 | 15 | 248 | 0.0 | 12.9 | 0.00 | 3.02 | 2.84 | 91 | 1001.1 |
| 20260507122300 | 15 | 203 | 3.2 | 12.9 | 0.00 | 3.02 | 2.84 | 91 | 1001.6 |
| 20260507121750 | 15 | 225 | 4.8 | 17.7 | 0.00 | 3.02 | 2.84 | 92 | 1001.6 |
| 20260507121241 | 15 | 225 | 6.4 | 17.7 | 0.00 | 3.02 | 2.84 | 92 | 1002.1 |
| 20260507120730 | 15 | 315 | 4.8 | 17.7 | 0.00 | 3.02 | 2.84 | 92 | 1001.8 |
| 20260507120220 | 15 | 270 | 11.3 | 17.7 | 0.00 | 3.02 | 2.84 | 92 | 1001.6 |
| 20260507115710 | 15 | 135 | 6.4 | 17.7 | 0.00 | 3.02 | 2.84 | 93 | 1001.3 |
| 20260507115200 | 15 | 248 | 3.2 | 17.7 | 0.00 | 3.02 | 2.84 | 94 | 1000.7 |
| 20260507114650 | 14 | 158 | 3.2 | 17.7 | 0.00 | 3.02 | 2.84 | 95 | 999.9 |
| 20260507114140 | 14 | 225 | 6.4 | 20.9 | 0.00 | 3.02 | 2.84 | 95 | 999.4 |
| 20260507113630 | 14 | 180 | 3.2 | 20.9 | 0.00 | 3.02 | 2.84 | 96 | 999.9 |
| 20260507113119 | 14 | 270 | 6.4 | 20.9 | 0.00 | 3.02 | 2.84 | 97 | 1001.1 |
| 20260507112609 | 14 | 315 | 11.3 | 20.9 | 0.00 | 3.02 | 2.84 | 98 | 1001.4 |
| 20260507112059 | 15 | 315 | 4.8 | 14.5 | 0.00 | 3.02 | 2.84 | 98 | 1001.5 |
| 20260507111813 | 15 | 248 | 4.8 | 14.5 | 0.00 | 3.02 | 2.84 | 98 | 1001.4 |
| 20260507111039 | 15 | 248 | 4.8 | 20.9 | 0.00 | 3.02 | 2.84 | 99 | 1000.8 |
| 20260507110529 | 15 | 203 | 11.3 | 20.9 | 0.00 | 3.02 | 2.84 | 99 | 1000.3 |
| 20260507110018 | 15 | 293 | 3.2 | 11.3 | 0.00 | 3.02 | 2.84 | 99 | 999.7 |
| 20260507105509 | 15 | 293 | 4.8 | 12.9 | 0.00 | 3.02 | 2.84 | 99 | 999.8 |
| 20260507104958 | 15 | 315 | 3.2 | 12.9 | 0.00 | 3.02 | 2.84 | 99 | 999.8 |
| 20260507104713 | 15 | 248 | 4.8 | 12.9 | 0.00 | 3.02 | 2.84 | 99 | 999.7 |
| 20260507103938 | 15 | 315 | 4.8 | 9.7 | 0.00 | 3.02 | 2.84 | 99 | 999.6 |
| 20260507102918 | 15 | 225 | 3.2 | 12.9 | 0.00 | 3.02 | 2.84 | 99 | 1000.3 |
| 20260507102410 | 15 | 293 | 6.4 | 11.3 | 0.00 | 3.02 | 2.84 | 99 | 1000.9 |
| 20260507102119 | 15 | 293 | 3.2 | 6.4 | 0.00 | 3.02 | 2.84 | 99 | 1000.9 |
| 20260507101356 | 15 | 248 | 3.2 | 6.4 | 0.00 | 3.02 | 2.84 | 99 | 1001.5 |
| 20260507100838 | 15 | 113 | 0.0 | 3.2 | 0.00 | 3.02 | 2.84 | 99 | 1001.0 |
| 20260507100327 | 15 | 135 | 0.0 | 9.7 | 0.00 | 3.02 | 2.84 | 99 | 1000.4 |
| 20260507095817 | 15 | 203 | 0.0 | 11.3 | 0.00 | 3.02 | 2.84 | 99 | 999.9 |
| 20260507095307 | 15 | 248 | 4.8 | 11.3 | 0.00 | 3.02 | 2.84 | 99 | 999.5 |
| 20260507094247 | 16 | 270 | 0.0 | 12.9 | 0.00 | 3.02 | 2.84 | 99 | 1000.4 |
| 20260507093737 | 16 | 225 | 3.2 | 12.9 | 0.03 | 3.02 | 2.84 | 99 | 999.8 |
| 20260507093226 | 16 | 270 | 4.8 | 12.9 | 0.03 | 3.02 | 2.84 | 99 | 999.7 |
| 20260507092720 | 16 | 180 | 3.2 | 9.7 | 0.03 | 3.02 | 2.84 | 99 | 999.4 |
| 20260507092206 | 16 | 270 | 3.2 | 6.4 | 0.03 | 3.02 | 2.84 | 99 | 999.0 |
| 20260507091656 | 16 | 293 | 3.2 | 11.3 | 0.03 | 3.02 | 2.84 | 99 | 999.2 |
| 20260507091419 | 16 | 270 | 3.2 | 11.3 | 0.03 | 3.02 | 2.84 | 99 | 999.5 |
| 20260507090636 | 16 | 248 | 1.6 | 11.3 | 0.03 | 3.02 | 2.84 | 99 | 999.7 |
| 20260507090356 | 16 | 270 | 6.4 | 11.3 | 0.03 | 3.02 | 2.84 | 99 | 1000.6 |
| 20260507085617 | 16 | 248 | 3.2 | 11.3 | 0.03 | 3.02 | 2.84 | 99 | 1000.2 |
| 20260507085105 | 16 | 180 | 4.8 | 14.5 | 0.05 | 3.02 | 2.84 | 99 | 999.6 |
| 20260507084556 | 16 | 203 | 3.2 | 14.5 | 0.05 | 3.02 | 2.84 | 99 | 999.8 |
| 20260507084046 | 16 | 248 | 3.2 | 11.3 | 0.03 | 3.00 | 2.82 | 99 | 1000.2 |
| 20260507083536 | 16 | 225 | 0.0 | 11.3 | 0.05 | 3.00 | 2.82 | 99 | 1000.3 |
| 20260507083247 | 16 | 248 | 3.2 | 9.7 | 0.05 | 3.00 | 2.82 | 99 | 999.6 |
| 20260507082732 | 16 | 203 | 0.0 | 6.4 | 0.05 | 3.00 | 2.82 | 99 | 998.9 |
| 20260507082005 | 16 | 203 | 3.2 | 6.4 | 0.05 | 3.00 | 2.82 | 99 | 998.8 |
| 20260507081719 | 16 | 270 | 1.6 | 6.4 | 0.05 | 3.00 | 2.82 | 99 | 999.4 |
| 20260507080945 | 16 | 180 | 0.0 | 6.4 | 0.05 | 3.00 | 2.82 | 99 | 999.6 |
| 20260507080435 | 16 | 0 | 0.0 | 9.7 | 0.05 | 3.00 | 2.82 | 99 | 999.8 |
| 20260507075924 | 16 | 158 | 3.2 | 9.7 | 0.05 | 3.00 | 2.82 | 99 | 999.1 |
| 20260507074904 | 16 | 135 | 4.8 | 6.4 | 0.08 | 2.97 | 2.79 | 99 | 998.8 |
| 20260507074354 | 16 | 135 | 4.8 | 11.3 | 0.08 | 2.97 | 2.79 | 99 | 998.8 |
| 20260507073844 | 16 | 158 | 6.4 | 11.3 | 0.08 | 2.95 | 2.77 | 99 | 999.2 |
| 20260507073334 | 16 | 158 | 6.4 | 11.3 | 0.08 | 2.95 | 2.77 | 99 | 999.8 |
| 20260507072830 | 16 | 158 | 6.4 | 11.3 | 0.10 | 2.95 | 2.77 | 99 | 998.9 |
| 20260507072315 | 16 | 180 | 3.2 | 11.3 | 0.13 | 2.95 | 2.77 | 99 | 999.8 |
| 20260507071805 | 17 | 113 | 3.2 | 11.3 | 0.18 | 2.95 | 2.77 | 99 | 999.9 |
| 20260507071520 | 17 | 203 | 3.2 | 9.7 | 0.20 | 2.95 | 2.77 | 99 | 999.3 |
| 20260507070743 | 17 | 113 | 3.2 | 9.7 | 0.25 | 2.95 | 2.77 | 99 | 999.8 |
| 20260507070235 | 17 | 113 | 4.8 | 9.7 | 0.30 | 2.95 | 2.77 | 99 | 999.7 |
| 20260507065723 | 17 | 248 | 1.6 | 6.4 | 0.28 | 2.92 | 2.74 | 99 | 1000.3 |
| 20260507065213 | 17 | 203 | 0.0 | 6.4 | 0.25 | 2.90 | 2.72 | 99 | 1001.1 |
| 20260507064703 | 17 | 203 | 1.6 | 12.9 | 0.30 | 2.90 | 2.72 | 99 | 1000.8 |
| 20260507064421 | 17 | 203 | 1.6 | 12.9 | 0.30 | 2.90 | 2.72 | 99 | 1000.9 |
| 20260507063643 | 17 | 135 | 4.8 | 12.9 | 0.30 | 2.87 | 2.69 | 99 | 1000.3 |
| 20260507063133 | 17 | 113 | 3.2 | 6.4 | 0.30 | 2.84 | 2.67 | 99 | 1001.4 |
| 20260507062622 | 17 | 158 | 1.6 | 3.2 | 0.30 | 2.84 | 2.67 | 99 | 1002.1 |
| 20260507062113 | 17 | 158 | 0.0 | 3.2 | 0.25 | 2.79 | 2.64 | 99 | 1002.5 |
| 20260507061603 | 17 | 180 | 0.0 | 3.2 | 0.25 | 2.77 | 2.59 | 99 | 1002.5 |
| 20260507061052 | 17 | 113 | 0.0 | 6.4 | 0.20 | 2.72 | 2.54 | 99 | 1002.5 |
| 20260507060542 | 17 | 225 | 0.0 | 6.4 | 0.13 | 2.67 | 2.49 | 98 | 1002.7 |
| 20260507060032 | 17 | 248 | 1.6 | 12.9 | 0.10 | 2.64 | 2.46 | 98 | 1003.0 |
| 20260507055522 | 17 | 270 | 3.2 | 14.5 | 0.13 | 2.64 | 2.46 | 98 | 1003.4 |
| 20260507055234 | 17 | 293 | 6.4 | 14.5 | 0.10 | 2.62 | 2.44 | 98 | 1003.1 |
| 20260507054502 | 18 | 270 | 6.4 | 11.3 | 0.13 | 2.59 | 2.41 | 98 | 1003.1 |
| 20260507053952 | 18 | 180 | 1.6 | 6.4 | 0.20 | 2.59 | 2.41 | 98 | 1001.8 |
| 20260507053706 | 18 | 158 | 1.6 | 3.2 | 0.30 | 2.57 | 2.39 | 98 | 1002.0 |
| 20260507052932 | 18 | 225 | 0.0 | 0.0 | 0.48 | 2.51 | 2.34 | 98 | 1001.9 |
| 20260507052422 | 17 | 180 | 0.0 | 0.0 | 0.94 | 2.51 | 2.34 | 98 | 1001.5 |
| 20260507051911 | 17 | 248 | 0.0 | 6.4 | 1.50 | 2.51 | 2.34 | 98 | 1001.1 |
| 20260507051617 | 18 | 248 | 0.0 | 6.4 | 2.08 | 2.51 | 2.34 | 98 | 1001.0 |
| 20260507050851 | 18 | 203 | 3.2 | 6.4 | 2.08 | 2.51 | 2.34 | 98 | 1000.6 |
| 20260507050341 | 18 | 203 | 0.0 | 6.4 | 2.08 | 2.51 | 2.34 | 98 | 1000.9 |
| 20260507045831 | 18 | 203 | 0.0 | 9.7 | 2.21 | 2.51 | 2.34 | 97 | 1001.0 |
| 20260507045321 | 18 | 158 | 0.0 | 9.7 | 2.24 | 2.51 | 2.34 | 97 | 1000.6 |
| 20260507044813 | 18 | 135 | 1.6 | 9.7 | 2.31 | 2.51 | 2.34 | 97 | 1000.8 |
| 20260507044309 | 18 | 203 | 3.2 | 9.7 | 2.29 | 2.46 | 2.29 | 97 | 1001.0 |
| 20260507043750 | 18 | 293 | 3.2 | 14.5 | 2.16 | 2.34 | 2.18 | 97 | 1000.7 |
| 20260507043507 | 18 | 248 | 3.2 | 14.5 | 1.98 | 2.16 | 1.98 | 96 | 1001.2 |
| 20260507042730 | 18 | 158 | 4.8 | 6.4 | 1.65 | 1.83 | 1.80 | 96 | 1001.0 |
| 20260507042220 | 18 | 158 | 3.2 | 12.9 | 1.24 | 1.42 | 1.24 | 95 | 1002.4 |
| 20260507040650 | 19 | 158 | 6.4 | 17.7 | 0.25 | 0.43 | 0.25 | 92 | 1000.0 |
| 20260507040139 | 20 | 158 | 6.4 | 17.7 | 0.15 | 0.33 | 0.20 | 90 | 1000.1 |
| 20260507035629 | 22 | 203 | 6.4 | 12.9 | 0.10 | 0.28 | 0.10 | 90 | 999.8 |
| 20260507034610 | 23 | 113 | 3.2 | 11.3 | 0.00 | 0.18 | 0.00 | 86 | 998.7 |
| 20260507034326 | 23 | 0 | 1.6 | 11.3 | 0.00 | 0.18 | 0.00 | 85 | 998.5 |
| 20260507033548 | 23 | 0 | 0.0 | 6.4 | 0.00 | 0.18 | 0.00 | 85 | 998.6 |
| 20260507033039 | 23 | 0 | 0.0 | 11.3 | 0.00 | 0.18 | 0.00 | 85 | 998.9 |
| 20260507032756 | 23 | 338 | 6.4 | 11.3 | 0.00 | 0.18 | 0.00 | 85 | 998.9 |
| 20260507032236 | 23 | 293 | 6.4 | 11.3 | 0.00 | 0.18 | 0.00 | 85 | 998.8 |
| 20260507031728 | 23 | 45 | 3.2 | 11.3 | 0.00 | 0.18 | 0.00 | 85 | 999.0 |
| 20260507030958 | 23 | 135 | 4.8 | 12.9 | 0.00 | 0.18 | 0.00 | 85 | 999.4 |
| 20260507030449 | 23 | 23 | 3.2 | 12.9 | 0.00 | 0.18 | 0.00 | 85 | 999.6 |
| 20260507025940 | 23 | 113 | 6.4 | 14.5 | 0.00 | 0.18 | 0.18 | 84 | 999.4 |
| 20260507025428 | 23 | 113 | 4.8 | 20.9 | 0.00 | 0.18 | 0.18 | 83 | 999.5 |
| 20260507024918 | 23 | 68 | 3.2 | 20.9 | 0.00 | 0.18 | 0.18 | 83 | 999.5 |
| 20260507023857 | 23 | 45 | 4.8 | 12.9 | 0.00 | 0.18 | 0.18 | 84 | 999.7 |
| 20260507023347 | 23 | 45 | 3.2 | 17.7 | 0.00 | 0.18 | 0.18 | 84 | 999.7 |
| 20260507022837 | 23 | 158 | 4.8 | 17.7 | 0.00 | 0.18 | 0.18 | 84 | 999.8 |
| 20260507022327 | 23 | 23 | 3.2 | 9.7 | 0.00 | 0.18 | 0.18 | 84 | 1000.1 |
| 20260507021818 | 23 | 0 | 0.0 | 11.3 | 0.00 | 0.18 | 0.18 | 84 | 1000.2 |
| 20260507021306 | 23 | 270 | 0.0 | 12.9 | 0.00 | 0.18 | 0.18 | 84 | 1000.1 |
| 20260507020757 | 23 | 203 | 3.2 | 12.9 | 0.00 | 0.18 | 0.18 | 84 | 999.9 |
| 20260507020247 | 23 | 68 | 4.8 | 12.9 | 0.00 | 0.18 | 0.18 | 84 | 1000.0 |
| 20260507015742 | 23 | 45 | 3.2 | 12.9 | 0.00 | 0.18 | 0.18 | 84 | 1000.3 |
| 20260507015227 | 23 | 68 | 3.2 | 11.3 | 0.00 | 0.18 | 0.18 | 85 | 1000.4 |
| 20260507014943 | 23 | 90 | 3.2 | 11.3 | 0.00 | 0.18 | 0.18 | 85 | 1000.6 |
| 20260507014207 | 23 | 68 | 1.6 | 9.7 | 0.00 | 0.18 | 0.18 | 85 | 1000.7 |
| 20260507013657 | 23 | 45 | 1.6 | 9.7 | 0.00 | 0.18 | 0.18 | 85 | 1000.5 |
| 20260507013147 | 23 | 45 | 3.2 | 6.4 | 0.00 | 0.18 | 0.18 | 85 | 1000.6 |
| 20260507012636 | 23 | 90 | 1.6 | 9.7 | 0.00 | 0.18 | 0.18 | 85 | 1000.8 |
| 20260507012344 | 23 | 0 | 3.2 | 11.3 | 0.00 | 0.18 | 0.18 | 84 | 1001.0 |
| 20260507011616 | 23 | 45 | 4.8 | 12.9 | 0.00 | 0.18 | 0.18 | 84 | 1000.9 |
| 20260507011106 | 23 | 23 | 4.8 | 12.9 | 0.00 | 0.18 | 0.18 | 84 | 1000.8 |
| 20260507010556 | 23 | 68 | 4.8 | 11.3 | 0.00 | 0.18 | 0.18 | 84 | 1000.4 |
| 20260507010046 | 23 | 23 | 1.6 | 11.3 | 0.00 | 0.18 | 0.18 | 84 | 1001.0 |
| 20260507005535 | 23 | 158 | 3.2 | 9.7 | 0.00 | 0.18 | 0.18 | 85 | 1001.0 |
| 20260507005025 | 23 | 113 | 3.2 | 11.3 | 0.00 | 0.18 | 0.18 | 85 | 1001.1 |
| 20260507004515 | 23 | 23 | 3.2 | 11.3 | 0.00 | 0.18 | 0.18 | 85 | 1001.0 |
| 20260507004005 | 23 | 338 | 1.6 | 9.7 | 0.00 | 0.18 | 0.18 | 86 | 1001.0 |
| 20260507003455 | 23 | 23 | 3.2 | 9.7 | 0.00 | 0.18 | 0.18 | 86 | 1001.2 |
| 20260507002945 | 23 | 0 | 3.2 | 9.7 | 0.00 | 0.18 | 0.18 | 86 | 1001.2 |
| 20260507002701 | 23 | 23 | 3.2 | 12.9 | 0.00 | 0.18 | 0.18 | 86 | 1000.9 |
| 20260507001925 | 23 | 45 | 1.6 | 12.9 | 0.00 | 0.18 | 0.18 | 86 | 1000.5 |
| 20260507001415 | 23 | 293 | 3.2 | 9.7 | 0.00 | 0.18 | 0.18 | 86 | 1001.0 |
| 20260507000905 | 23 | 23 | 3.2 | 12.9 | 0.00 | 0.18 | 0.18 | 87 | 1000.8 |
| 20260507000354 | 23 | 23 | 1.6 | 12.9 | 0.00 | 0.18 | 0.18 | 87 | 1000.6 |
| 20260506235844 | 22 | 45 | 3.2 | 9.7 | 0.00 | 0.18 | 0.18 | 87 | 1000.8 |
| 20260506235334 | 22 | 23 | 4.8 | 12.9 | 0.00 | 0.18 | 0.18 | 88 | 1001.0 |
| 20260506235046 | 22 | 45 | 3.2 | 12.9 | 0.00 | 0.18 | 0.18 | 88 | 1000.8 |
| 20260506234314 | 22 | 0 | 4.8 | 12.9 | 0.00 | 0.18 | 0.18 | 88 | 1000.8 |
| 20260506233804 | 22 | 315 | 0.0 | 12.9 | 0.00 | 0.18 | 0.18 | 88 | 1000.5 |
| 20260506233253 | 22 | 180 | 4.8 | 14.5 | 0.00 | 0.18 | 0.18 | 88 | 1000.2 |
| 20260506233010 | 22 | 23 | 6.4 | 14.5 | 0.00 | 0.18 | 0.18 | 88 | 999.7 |
| 20260506231726 | 21 | 23 | 3.2 | 12.9 | 0.00 | 0.18 | 0.18 | 90 | 1000.3 |
| 20260506231222 | 21 | 23 | 4.8 | 6.4 | 0.00 | 0.18 | 0.18 | 91 | 1000.4 |
| 20260506230704 | 21 | 68 | 1.6 | 6.4 | 0.00 | 0.18 | 0.18 | 91 | 1000.5 |
| 20260506230153 | 21 | 0 | 3.2 | 6.4 | 0.00 | 0.18 | 0.18 | 91 | 1000.6 |
| 20260506225910 | 20 | 158 | 0.0 | 6.4 | 0.00 | 0.18 | 0.18 | 91 | 1000.8 |
| 20260506225132 | 20 | 90 | 0.0 | 6.4 | 0.00 | 0.18 | 0.18 | 91 | 1001.0 |
| 20260506224622 | 20 | 90 | 1.6 | 3.2 | 0.00 | 0.18 | 0.18 | 91 | 1001.3 |
| 20260506224113 | 20 | 113 | 1.6 | 6.4 | 0.00 | 0.18 | 0.18 | 91 | 1001.4 |
| 20260506223602 | 20 | 113 | 1.6 | 6.4 | 0.00 | 0.18 | 0.18 | 91 | 1001.2 |
| 20260506223052 | 20 | 135 | 0.0 | 6.4 | 0.00 | 0.18 | 0.18 | 91 | 1001.3 |
| 20260506222542 | 20 | 68 | 0.0 | 3.2 | 0.00 | 0.18 | 0.18 | 91 | 1001.5 |
| 20260506222032 | 20 | 135 | 0.0 | 3.2 | 0.00 | 0.18 | 0.18 | 91 | 1001.7 |
| 20260506221522 | 20 | 113 | 0.0 | 3.2 | 0.00 | 0.18 | 0.18 | 91 | 1001.9 |
| 20260506221012 | 20 | 113 | 1.6 | 6.4 | 0.00 | 0.18 | 0.18 | 91 | 1001.7 |
| 20260506220502 | 20 | 158 | 0.0 | 6.4 | 0.00 | 0.18 | 0.18 | 91 | 1002.1 |
| 20260506215951 | 20 | 158 | 1.6 | 6.4 | 0.00 | 0.18 | 0.18 | 91 | 1001.8 |
| 20260506215443 | 20 | 180 | 0.0 | 6.4 | 0.00 | 0.18 | 0.18 | 90 | 1002.2 |
| 20260506214931 | 20 | 113 | 0.0 | 3.2 | 0.00 | 0.18 | 0.18 | 90 | 1002.4 |
| 20260506214646 | 20 | 180 | 0.0 | 3.2 | 0.00 | 0.18 | 0.18 | 90 | 1002.5 |
| 20260506213911 | 20 | 68 | 0.0 | 0.0 | 0.00 | 0.18 | 0.18 | 90 | 1003.0 |
| 20260506212850 | 20 | 135 | 0.0 | 0.0 | 0.00 | 0.18 | 0.18 | 90 | 1002.8 |
| 20260506212341 | 20 | 45 | 0.0 | 0.0 | 0.00 | 0.18 | 0.18 | 90 | 1002.7 |
| 20260506211831 | 20 | 68 | 0.0 | 0.0 | 0.00 | 0.18 | 0.18 | 89 | 1002.8 |
| 20260506211320 | 20 | 45 | 0.0 | 0.0 | 0.00 | 0.18 | 0.18 | 89 | 1002.9 |
| 20260506210811 | 21 | 180 | 0.0 | 0.0 | 0.00 | 0.18 | 0.18 | 89 | 1002.9 |
| 20260506210300 | 21 | 180 | 0.0 | 3.2 | 0.00 | 0.18 | 0.18 | 89 | 1002.8 |
| 20260506205750 | 21 | 158 | 0.0 | 3.2 | 0.00 | 0.18 | 0.18 | 89 | 1003.0 |
| 20260506205508 | 21 | 158 | 0.0 | 3.2 | 0.00 | 0.18 | 0.18 | 88 | 1003.0 |
| 20260506204730 | 21 | 135 | 0.0 | 3.2 | 0.00 | 0.18 | 0.18 | 88 | 1003.1 |
| 20260506204220 | 21 | 180 | 0.0 | 3.2 | 0.00 | 0.18 | 0.18 | 88 | 1002.9 |
| 20260506203710 | 21 | 158 | 0.0 | 6.4 | 0.00 | 0.18 | 0.18 | 88 | 1002.9 |
| 20260506203200 | 21 | 158 | 0.0 | 6.4 | 0.00 | 0.18 | 0.18 | 88 | 1002.9 |